Flag for South Africa Weather past 2 weeks in Pretoria, South Africa

Now
61 °F

Refreshingly cool.


Feels Like: 61 °F
Forecast: 51 / 83 °F
Wind: 6 mph from Northeast

Location: Waterkloof Lmb

Current Time: Sep 24, 2014 at 6:58:04 AM

Latest Report: Sep 24, 2014 at 6:00 AM


Visibility: N/A

Pressure: 30.33 "Hg

Humidity: 48%

Dew point: 41 °F

Location of PretoriaLocation

Historic Weather in Pretoria — Graph

°F

Pretoria temperature yesterday

Maximum temperature yesterday: 81 °F (at 4:00 PM)
Minimum temperature yesterday: 57 °F (at 5:00 AM)
Average temperature yesterday: 69 °F

Past Weeks' High & Low Weather Summary

 TemperatureHumidityPressure
High90 °F (Sep 12, 3:00 PM)94% (Sep 22, 6:00 AM)30.45 "Hg (Sep 22, 6:00 AM)
Low50 °F (Sep 19, 6:00 AM)11% (Sep 19, 3:00 PM)30.01 "Hg (Sep 18, 3:00 PM)
Average71 °F36%30.27 "Hg
* Reported Sep 9 4:00 PM — Sep 24 5:00 AM, Pretoria, Weather by CustomWeather, © 2014

Note: Actual official high and low records may vary slightly from our data, if they occured in-between our weather recording intervals... More about our weather records

Advertising

Pretoria weather history for previous 24 hours

 ConditionsComfort  
Time TempWeatherWind HumidityBarometerVisibility
5:00 AM
Sep 24
61 °FRefreshingly cool.7 mph48%30.30 "HgN/A
4:00 AM63 °FMild.7 mph45%30.30 "HgN/A
3:00 AM63 °FMild.8 mph45%30.30 "HgN/A
2:00 AM63 °FMild.6 mph45%30.33 "HgN/A
1:00 AM64 °FMild.8 mph43%30.36 "HgN/A
12:00 AM66 °FMild.9 mph40%30.36 "HgN/A
11:00 PM
Sep 23
68 °FMild.9 mph35%30.36 "HgN/A
10:00 PM70 °FMild.9 mph31%30.36 "HgN/A
9:00 PM70 °FMild.3 mph29%30.33 "HgN/A
8:00 PM70 °FMild.3 mph29%30.33 "HgN/A
7:00 PM72 °FMild.3 mph29%30.30 "HgN/A
6:00 PM75 °FMild.7 mph22%30.30 "HgN/A
5:00 PM79 °FPleasantly warm.9 mph20%30.30 "HgN/A
4:00 PM81 °FPleasantly warm.9 mph17%30.30 "HgN/A
3:00 PM79 °FPleasantly warm.10 mph21%30.30 "HgN/A
2:00 PM79 °FPleasantly warm.13 mph24%30.30 "HgN/A
1:00 PM79 °FPleasantly warm.5 mph26%30.33 "HgN/A
12:00 PM75 °FMild.6 mph34%30.36 "HgN/A
11:00 AM73 °FMild.9 mph38%30.39 "HgN/A
10:00 AM70 °FMild.8 mph43%30.42 "HgN/A
9:00 AM66 °FMild.8 mph52%30.42 "HgN/A
8:00 AM64 °FMild.12 mph56%30.42 "HgN/A
7:00 AM61 °FCool.5 mph68%30.39 "HgN/A
6:00 AM57 °FCool.3 mph77%30.36 "HgN/A
Weather by CustomWeather, © 2014

See weather overviewHow to use our weather pages